Location: Althorst
(53.6379°N, 10.7715°E)
Time: 13:28:17
(UTC+00:00)

RESURS DK-1 - Pass Details

Date: 10 December 2019
Orbit: 554 x 564 km, 69.9° (Epoch: 22 January)

Event Time Altitude Azimuth Distance (km) Brightness Sun altitude
Rises 18:06:50 0° 255° (WSW) 2,736 7.1 -26.6°
Reaches altitude 10° 18:09:25 10° 271° (W) 1,845 6.0 -27.0°
Maximum altitude 18:12:41 22° 323° (NW) 1,245 4.4 -27.5°
Enters shadow 18:13:05 22° 332° (NNW) 1,257 4.3 -27.6°
